Hourly Weather Bolshie Karkaly

Today, 19 June, Saturday

Time Temperature Precipitation Wind Pressure Humidity
00:00 +10°C° 0 mm 2 mps 737 mmHg 85%
01:00 +9°C° 0 mm 2 mps 737 mmHg 85%
02:00 +9°C° 0 mm 2 mps 737 mmHg 84%
03:00 +9°C° 0 mm 2 mps 737 mmHg 83%
04:00 +9°C° 0 mm 2 mps 738 mmHg 82%
05:00 +10°C° 0 mm 2 mps 738 mmHg 77%
06:00 +13°C° 0 mm 1 mps 738 mmHg 73%
07:00 +14°C° 0 mm 1 mps 738 mmHg 68%
08:00 +16°C° 0 mm 2 mps 738 mmHg 64%
09:00 +17°C° 0 mm 2 mps 738 mmHg 60%
10:00 +19°C° 0 mm 3 mps 738 mmHg 55%
11:00 +20°C° 0 mm 3 mps 738 mmHg 54%
12:00 +20°C° 0 mm 4 mps 738 mmHg 54%
13:00 +21°C° 0 mm 4 mps 737 mmHg 53%
14:00 +22°C° 0 mm 5 mps 737 mmHg 54%
15:00 +22°C° 0 mm 5 mps 737 mmHg 54%
16:00 +22°C° 0 mm 6 mps 736 mmHg 55%
17:00 +21°C° 0 mm 5 mps 736 mmHg 60%
18:00 +21°C° 0 mm 5 mps 736 mmHg 66%
19:00 +20°C° 0 mm 5 mps 735 mmHg 71%
20:00 +19°C° 0 mm 5 mps 735 mmHg 76%
21:00 +18°C° 0 mm 4 mps 735 mmHg 80%
22:00 +15°C° 0 mm 4 mps 735 mmHg 85%
23:00 +15°C° 0 mm 4 mps 735 mmHg 85%

Tomorrow, 20 June, Sunday

Time Temperature Precipitation Wind Pressure Humidity
00:00 +15°C° 0 mm 5 mps 735 mmHg 84%
01:00 +15°C° 0 mm 5 mps 734 mmHg 84%
02:00 +14°C° 0 mm 5 mps 734 mmHg 86%
03:00 +14°C° 0 mm 5 mps 734 mmHg 88%
04:00 +14°C° 0 mm 5 mps 734 mmHg 90%
05:00 +15°C° 0 mm 5 mps 734 mmHg 87%
06:00 +17°C° 0 mm 5 mps 734 mmHg 84%
07:00 +19°C° 0 mm 5 mps 734 mmHg 81%
08:00 +21°C° 0 mm 5 mps 734 mmHg 77%
09:00 +23°C° 0 mm 6 mps 734 mmHg 72%
10:00 +24°C° 0 mm 6 mps 734 mmHg 67%
11:00 +26°C° 0.6 mm 6 mps 734 mmHg 66%
12:00 +26°C° 0.6 mm 6 mps 734 mmHg 65%
13:00 +27°C° 0.6 mm 6 mps 735 mmHg 65%
14:00 +26°C° 0.5 mm 6 mps 735 mmHg 66%
15:00 +26°C° 0.5 mm 6 mps 735 mmHg 68%
16:00 +26°C° 0.5 mm 6 mps 735 mmHg 70%
17:00 +25°C° 0.1 mm 5 mps 735 mmHg 71%
18:00 +23°C° 0.1 mm 5 mps 735 mmHg 71%
19:00 +23°C° 0.1 mm 4 mps 735 mmHg 72%
20:00 +21°C° 0 mm 3 mps 735 mmHg 74%
21:00 +19°C° 0 mm 3 mps 735 mmHg 77%
22:00 +17°C° 0 mm 2 mps 735 mmHg 79%
23:00 +16°C° 0 mm 2 mps 736 mmHg 78%

Day after tomorrow, 21 June, Monday

Time Temperature Precipitation Wind Pressure Humidity
00:00 +15°C° 0 mm 2 mps 736 mmHg 77%
01:00 +14°C° 0 mm 1 mps 736 mmHg 76%
02:00 +14°C° 0 mm 1 mps 736 mmHg 71%
03:00 +13°C° 0 mm 1 mps 736 mmHg 67%
04:00 +13°C° 0 mm 1 mps 736 mmHg 63%
05:00 +14°C° 0 mm 1 mps 737 mmHg 61%
06:00 +16°C° 0 mm 1 mps 737 mmHg 59%
07:00 +18°C° 0 mm 1 mps 737 mmHg 58%
08:00 +19°C° 0 mm 1 mps 737 mmHg 54%
09:00 +20°C° 0 mm 2 mps 738 mmHg 50%
10:00 +21°C° 0 mm 2 mps 738 mmHg 46%
11:00 +23°C° 0 mm 2 mps 738 mmHg 46%
12:00 +23°C° 0 mm 2 mps 738 mmHg 46%
13:00 +24°C° 0 mm 2 mps 738 mmHg 46%
14:00 +25°C° 0 mm 2 mps 738 mmHg 48%
15:00 +25°C° 0 mm 2 mps 737 mmHg 50%
16:00 +25°C° 0 mm 1 mps 737 mmHg 52%
17:00 +25°C° 0 mm 1 mps 737 mmHg 57%
18:00 +25°C° 0 mm 1 mps 737 mmHg 63%
19:00 +24°C° 0 mm 1 mps 736 mmHg 68%
20:00 +23°C° 0.4 mm 1 mps 736 mmHg 73%
21:00 +21°C° 0.4 mm 1 mps 736 mmHg 78%
22:00 +19°C° 0.4 mm 1 mps 736 mmHg 82%
23:00 +18°C° 0.3 mm 2 mps 736 mmHg 85%

22 June, Tuesday

Time Temperature Precipitation Wind Pressure Humidity
00:00 +17°C° 0.3 mm 2 mps 736 mmHg 87%
01:00 +17°C° 0.3 mm 2 mps 736 mmHg 90%
02:00 +17°C° 0 mm 2 mps 736 mmHg 90%
03:00 +17°C° 0 mm 2 mps 736 mmHg 91%
04:00 +17°C° 0 mm 2 mps 736 mmHg 91%
05:00 +18°C° 0 mm 2 mps 736 mmHg 88%
06:00 +20°C° 0 mm 2 mps 736 mmHg 85%
07:00 +21°C° 0 mm 2 mps 736 mmHg 82%
08:00 +24°C° 0.5 mm 3 mps 736 mmHg 79%
09:00 +25°C° 0.5 mm 4 mps 736 mmHg 75%
10:00 +26°C° 0.5 mm 4 mps 736 mmHg 72%
11:00 +27°C° 0.2 mm 4 mps 736 mmHg 67%
12:00 +28°C° 0.2 mm 5 mps 736 mmHg 61%
13:00 +29°C° 0.2 mm 5 mps 736 mmHg 56%
14:00 +29°C° 0 mm 5 mps 736 mmHg 56%
15:00 +29°C° 0 mm 5 mps 736 mmHg 56%
16:00 +29°C° 0 mm 5 mps 736 mmHg 55%
17:00 +28°C° 0.2 mm 4 mps 736 mmHg 63%
18:00 +26°C° 0.2 mm 3 mps 735 mmHg 71%
19:00 +24°C° 0.2 mm 2 mps 735 mmHg 79%
20:00 +23°C° 0.2 mm 2 mps 735 mmHg 80%
21:00 +23°C° 0.2 mm 2 mps 735 mmHg 82%
22:00 +21°C° 0.2 mm 2 mps 735 mmHg 84%
23:00 +20°C° 0.1 mm 2 mps 735 mmHg 85%

23 June, Wednesday

Time Temperature Precipitation Wind Pressure Humidity
00:00 +20°C° 0.1 mm 2 mps 735 mmHg 86%
01:00 +20°C° 0.1 mm 2 mps 735 mmHg 87%
02:00 +19°C° 0.1 mm 2 mps 735 mmHg 87%
03:00 +19°C° 0.1 mm 2 mps 735 mmHg 88%
04:00 +19°C° 0.1 mm 2 mps 735 mmHg 88%
05:00 +20°C° 0.1 mm 2 mps 735 mmHg 85%
06:00 +21°C° 0.1 mm 2 mps 735 mmHg 82%
07:00 +23°C° 0.1 mm 2 mps 735 mmHg 79%
08:00 +25°C° 0.2 mm 2 mps 735 mmHg 74%
09:00 +26°C° 0.2 mm 3 mps 735 mmHg 70%
10:00 +27°C° 0.2 mm 3 mps 735 mmHg 65%
11:00 +28°C° 0.9 mm 3 mps 735 mmHg 63%
12:00 +28°C° 0.9 mm 3 mps 735 mmHg 61%
13:00 +28°C° 0.9 mm 3 mps 735 mmHg 60%
14:00 +29°C° 0.2 mm 3 mps 735 mmHg 58%
15:00 +29°C° 0.2 mm 3 mps 735 mmHg 56%
16:00 +29°C° 0.2 mm 3 mps 735 mmHg 54%
17:00 +28°C° 0.2 mm 3 mps 735 mmHg 61%
18:00 +27°C° 0.2 mm 3 mps 735 mmHg 69%
19:00 +26°C° 0.2 mm 2 mps 735 mmHg 76%
20:00 +24°C° 0.6 mm 2 mps 735 mmHg 79%
21:00 +23°C° 0.6 mm 1 mps 734 mmHg 81%
22:00 +21°C° 0.6 mm 1 mps 734 mmHg 84%
23:00 +21°C° 0.4 mm 1 mps 734 mmHg 85%

24 June, Thursday

Time Temperature Precipitation Wind Pressure Humidity
00:00 +21°C° 0.4 mm 1 mps 734 mmHg 85%
01:00 +21°C° 0.4 mm 1 mps 734 mmHg 86%
02:00 +21°C° 0 mm 1 mps 734 mmHg 86%
03:00 +19°C° 0 mm 2 mps 733 mmHg 87%
04:00 +19°C° 0 mm 2 mps 733 mmHg 88%
05:00 +20°C° 0.2 mm 2 mps 733 mmHg 86%
06:00 +21°C° 0.2 mm 3 mps 733 mmHg 85%
07:00 +22°C° 0.2 mm 3 mps 733 mmHg 84%
08:00 +23°C° 1 mm 4 mps 733 mmHg 79%
09:00 +26°C° 1 mm 4 mps 733 mmHg 75%
10:00 +27°C° 1 mm 5 mps 733 mmHg 71%
11:00 +27°C° 0.2 mm 4 mps 733 mmHg 67%
12:00 +28°C° 0.2 mm 4 mps 733 mmHg 63%
13:00 +29°C° 0.2 mm 4 mps 733 mmHg 59%
14:00 +29°C° 0.2 mm 4 mps 733 mmHg 60%
15:00 +29°C° 0.2 mm 4 mps 733 mmHg 61%
16:00 +29°C° 0.2 mm 4 mps 733 mmHg 62%
17:00 +27°C° 0.8 mm 4 mps 732 mmHg 68%
18:00 +26°C° 0.8 mm 3 mps 732 mmHg 73%
19:00 +25°C° 0.8 mm 2 mps 732 mmHg 78%
20:00 +24°C° 0.3 mm 2 mps 732 mmHg 81%
21:00 +23°C° 0.3 mm 2 mps 732 mmHg 83%
22:00 +21°C° 0.3 mm 2 mps 732 mmHg 86%
23:00 +21°C° 0 mm 1 mps 732 mmHg 87%
Show more